Darstellungsparameter: Aktuell verwendete Einstellungen:
Skalierung der Graphiken ... ?
xyx+y,   Skalierungsfaktor:      Skalierung: Modus: x, Faktor: 1
Darstellungszeitraum ... ?
Vom - - bis: - -   Zeitraum: 11.08.2019 - 11.08.2019
Min/Max/Avg-Anzeige ... ?
Zeige MMA aktuell
Zeige MMA Monat
Zeige MMA alles
Zeige --A aktuell
Zeige --A Monat
Zeige --A alles
Keine MMA-Anzeige
MMA:
Keine MMA-Graphiken
MMA-Basis: 11.08.2019 - 11.08.2019
Quicknavigation für Darstellung... ?
Tage:      1T, 2T, 3T, 5T -1T -2T -3T -5T +1T +2T +3T +5T
Wochen: 1W, 2W, 3W -1W -2W -3W +1W +2W +3W
Monate: 1M, 3M, 6M -1M -3M -6M +1M +3M +6M
Jahre:    1J, 3J, 5J, 10J -1J -3J -5J -10J +1J +3J +5J +10J
Nutze für die Darstellung ... ?
Originaldaten oder Mittelwerte auf ...
Stundenbasis Tagesbasis Wochenbasis
Monatsbasis Jahresbasis      Datenbasis: Original-Daten
Darstellen als:
Statistik (Auto) Statistik J:M      Darstellung:
Zur Graphik,    zurück zur Übersicht aller Sensoren.
 
Tabellarische Datenbersicht: ?
 
Sensor: Nr:Datum:Temp:Feuchte:Taupunkt:
Aussen-T/F 1 11-08-2019 00:00:00 16 C 84 % 13.3 C
2 11-08-2019 00:05:00 15.9 C 85 % 13.38 C
3 11-08-2019 00:10:00 15.9 C 85 % 13.38 C
4 11-08-2019 00:15:00 15.8 C 85 % 13.28 C
5 11-08-2019 00:20:00 15.8 C 84 % 13.1 C
6 11-08-2019 00:25:00 15.8 C 85 % 13.28 C
7 11-08-2019 00:30:00 15.7 C 84 % 13.01 C
8 11-08-2019 00:35:00 15.7 C 85 % 13.19 C
9 11-08-2019 00:40:00 15.7 C 85 % 13.19 C
10 11-08-2019 00:45:00 15.6 C 85 % 13.09 C
11 11-08-2019 00:50:00 15.6 C 85 % 13.09 C
12 11-08-2019 00:55:00 15.6 C 86 % 13.27 C
13 11-08-2019 01:00:00 15.6 C 87 % 13.45 C
14 11-08-2019 01:05:00 15.6 C 87 % 13.45 C
15 11-08-2019 01:10:00 15.5 C 87 % 13.35 C
16 11-08-2019 01:15:00 15.4 C 87 % 13.25 C
17 11-08-2019 01:20:00 15.4 C 87 % 13.25 C
18 11-08-2019 01:25:00 15.4 C 87 % 13.25 C
19 11-08-2019 01:30:00 15.3 C 87 % 13.15 C
20 11-08-2019 01:35:00 15.3 C 87 % 13.15 C
21 11-08-2019 01:40:00 15.2 C 88 % 13.23 C
22 11-08-2019 01:45:00 15.2 C 88 % 13.23 C
23 11-08-2019 01:50:00 15.3 C 88 % 13.33 C
24 11-08-2019 01:55:00 15.3 C 88 % 13.33 C
25 11-08-2019 02:00:00 15.4 C 88 % 13.42 C
Sensor: Nr:Datum:Temp:Feuchte:Taupunkt:
Aussen-T/F 26 11-08-2019 02:05:00 15.5 C 87 % 13.35 C
27 11-08-2019 02:10:00 15.6 C 87 % 13.45 C
28 11-08-2019 02:15:00 15.7 C 87 % 13.54 C
29 11-08-2019 02:20:00 15.7 C 87 % 13.54 C
30 11-08-2019 02:25:00 15.8 C 86 % 13.46 C
31 11-08-2019 02:30:00 15.8 C 86 % 13.46 C
32 11-08-2019 02:35:00 15.8 C 87 % 13.64 C
33 11-08-2019 02:40:00 15.8 C 86 % 13.46 C
34 11-08-2019 02:45:00 15.8 C 86 % 13.46 C
35 11-08-2019 02:50:00 15.8 C 86 % 13.46 C
36 11-08-2019 02:55:00 15.7 C 85 % 13.19 C
37 11-08-2019 03:00:00 15.7 C 85 % 13.19 C
38 11-08-2019 03:05:00 15.6 C 85 % 13.09 C
39 11-08-2019 03:10:00 15.6 C 86 % 13.27 C
40 11-08-2019 03:15:00 15.4 C 86 % 13.07 C
41 11-08-2019 03:20:00 15.3 C 86 % 12.97 C
42 11-08-2019 03:25:00 15.2 C 86 % 12.88 C
43 11-08-2019 03:30:00 15.1 C 87 % 12.95 C
44 11-08-2019 03:35:00 15.1 C 87 % 12.95 C
45 11-08-2019 03:40:00 15 C 87 % 12.86 C
46 11-08-2019 03:45:00 14.9 C 87 % 12.76 C
47 11-08-2019 03:50:00 14.8 C 88 % 12.83 C
48 11-08-2019 03:55:00 14.8 C 88 % 12.83 C
49 11-08-2019 04:00:00 14.7 C 88 % 12.73 C
50 11-08-2019 04:05:00 14.7 C 88 % 12.73 C
Sensor: Nr:Datum:Temp:Feuchte:Taupunkt:
Aussen-T/F 51 11-08-2019 04:10:00 14.6 C 88 % 12.64 C
52 11-08-2019 04:15:00 14.6 C 88 % 12.64 C
53 11-08-2019 04:20:00 14.6 C 88 % 12.64 C
54 11-08-2019 04:25:00 14.5 C 88 % 12.54 C
55 11-08-2019 04:30:00 14.4 C 88 % 12.44 C
56 11-08-2019 04:35:00 14.3 C 88 % 12.34 C
57 11-08-2019 04:40:00 14.2 C 89 % 12.41 C
58 11-08-2019 04:45:00 14.2 C 89 % 12.41 C
59 11-08-2019 04:50:00 14.2 C 89 % 12.41 C
60 11-08-2019 04:55:00 14.2 C 89 % 12.41 C
61 11-08-2019 05:00:00 14.1 C 89 % 12.32 C
62 11-08-2019 05:05:00 13.9 C 89 % 12.12 C
63 11-08-2019 05:10:00 13.8 C 90 % 12.19 C
64 11-08-2019 05:15:00 13.7 C 90 % 12.09 C
65 11-08-2019 05:20:00 13.7 C 90 % 12.09 C
66 11-08-2019 05:25:00 13.6 C 90 % 11.99 C
67 11-08-2019 05:30:00 13.6 C 90 % 11.99 C
68 11-08-2019 05:35:00 13.4 C 90 % 11.79 C
69 11-08-2019 05:40:00 13.3 C 91 % 11.86 C
70 11-08-2019 05:45:00 13.3 C 91 % 11.86 C
71 11-08-2019 05:50:00 13.3 C 91 % 11.86 C
72 11-08-2019 05:55:00 13.3 C 91 % 11.86 C
73 11-08-2019 06:00:00 13.2 C 91 % 11.76 C
74 11-08-2019 06:05:00 13.2 C 92 % 11.93 C
75 11-08-2019 06:10:00 13.1 C 92 % 11.83 C
Sensor: Nr:Datum:Temp:Feuchte:Taupunkt:
Aussen-T/F 76 11-08-2019 06:15:00 13.1 C 92 % 11.83 C
77 11-08-2019 06:20:00 13.2 C 93 % 12.09 C
78 11-08-2019 06:25:00 13.3 C 93 % 12.19 C
79 11-08-2019 06:30:00 13.5 C 94 % 12.55 C
80 11-08-2019 06:35:00 13.6 C 93 % 12.49 C
81 11-08-2019 06:40:00 13.6 C 93 % 12.49 C
82 11-08-2019 06:45:00 13.7 C 93 % 12.59 C
83 11-08-2019 06:50:00 13.7 C 93 % 12.59 C
84 11-08-2019 06:55:00 13.7 C 93 % 12.59 C
85 11-08-2019 07:00:00 13.7 C 93 % 12.59 C
86 11-08-2019 07:05:00 13.8 C 93 % 12.69 C
87 11-08-2019 07:10:00 13.8 C 93 % 12.69 C
88 11-08-2019 07:15:00 13.8 C 92 % 12.52 C
89 11-08-2019 07:20:00 13.9 C 93 % 12.79 C
90 11-08-2019 07:25:00 13.9 C 93 % 12.79 C
91 11-08-2019 07:30:00 14.1 C 92 % 12.82 C
92 11-08-2019 07:35:00 14.3 C 92 % 13.02 C
93 11-08-2019 07:40:00 14.3 C 92 % 13.02 C
94 11-08-2019 07:45:00 14.3 C 91 % 12.85 C
95 11-08-2019 07:50:00 14.3 C 91 % 12.85 C
96 11-08-2019 07:55:00 14.3 C 92 % 13.02 C
97 11-08-2019 08:00:00 14.4 C 92 % 13.12 C
98 11-08-2019 08:05:00 14.6 C 92 % 13.32 C
99 11-08-2019 08:10:00 14.7 C 92 % 13.41 C
100 11-08-2019 08:15:00 14.8 C 92 % 13.51 C
Sensor: Nr:Datum:Temp:Feuchte:Taupunkt:
Aussen-T/F 101 11-08-2019 08:20:00 14.8 C 92 % 13.51 C
102 11-08-2019 08:25:00 14.9 C 91 % 13.44 C
103 11-08-2019 08:30:00 14.9 C 91 % 13.44 C
104 11-08-2019 08:35:00 15 C 91 % 13.54 C
105 11-08-2019 08:40:00 15.1 C 90 % 13.47 C
106 11-08-2019 08:45:00 15.1 C 91 % 13.64 C
107 11-08-2019 08:50:00 15.2 C 91 % 13.74 C
108 11-08-2019 08:55:00 15.3 C 91 % 13.84 C
109 11-08-2019 09:00:00 15.3 C 90 % 13.67 C
110 11-08-2019 09:05:00 15.3 C 90 % 13.67 C
111 11-08-2019 09:10:00 15.4 C 90 % 13.77 C
112 11-08-2019 09:15:00 15.6 C 91 % 14.14 C
113 11-08-2019 09:20:00 15.8 C 90 % 14.16 C
114 11-08-2019 09:25:00 15.9 C 89 % 14.09 C
115 11-08-2019 09:30:00 16.2 C 86 % 13.86 C
116 11-08-2019 09:35:00 16.6 C 86 % 14.25 C
117 11-08-2019 09:40:00 16.8 C 86 % 14.45 C
118 11-08-2019 09:45:00 16.9 C 84 % 14.18 C
119 11-08-2019 09:50:00 17.2 C 82 % 14.1 C
120 11-08-2019 09:55:00 17.6 C 81 % 14.3 C
121 11-08-2019 10:00:00 17.9 C 78 % 14.01 C
122 11-08-2019 10:05:00 18.3 C 75 % 13.79 C
123 11-08-2019 10:10:00 18.7 C 75 % 14.18 C
124 11-08-2019 10:15:00 18.8 C 75 % 14.28 C
125 11-08-2019 10:20:00 18.9 C 72 % 13.74 C
Sensor: Nr:Datum:Temp:Feuchte:Taupunkt:
Aussen-T/F 126 11-08-2019 10:25:00 19.2 C 71 % 13.82 C
127 11-08-2019 10:30:00 19.5 C 68 % 13.44 C
128 11-08-2019 10:35:00 19.8 C 68 % 13.73 C
129 11-08-2019 10:40:00 20.1 C 65 % 13.32 C
130 11-08-2019 10:45:00 20.3 C 64 % 13.27 C
131 11-08-2019 10:50:00 20.4 C 63 % 13.12 C
132 11-08-2019 10:55:00 20.6 C 63 % 13.31 C
133 11-08-2019 11:00:00 20.7 C 62 % 13.16 C
134 11-08-2019 11:05:00 20.7 C 61 % 12.91 C
135 11-08-2019 11:10:00 20.8 C 60 % 12.76 C
136 11-08-2019 11:15:00 20.8 C 60 % 12.76 C
137 11-08-2019 11:20:00 20.9 C 60 % 12.85 C
138 11-08-2019 11:25:00 21.2 C 60 % 13.13 C
139 11-08-2019 11:30:00 21.3 C 62 % 13.73 C
140 11-08-2019 11:35:00 21.6 C 59 % 13.25 C
141 11-08-2019 11:40:00 21.8 C 57 % 12.91 C
142 11-08-2019 11:45:00 21.8 C 55 % 12.36 C
143 11-08-2019 11:50:00 21.8 C 59 % 13.44 C
144 11-08-2019 11:55:00 21.8 C 56 % 12.64 C
145 11-08-2019 12:00:00 21.8 C 58 % 13.17 C
146 11-08-2019 12:05:00 21.8 C 58 % 13.17 C
147 11-08-2019 12:10:00 21.8 C 58 % 13.17 C
148 11-08-2019 12:15:00 22 C 56 % 12.82 C
149 11-08-2019 12:20:00 22.1 C 57 % 13.19 C
150 11-08-2019 12:25:00 22.2 C 55 % 12.73 C
Sensor: Nr:Datum:Temp:Feuchte:Taupunkt:
Aussen-T/F 151 11-08-2019 12:30:00 22.1 C 55 % 12.64 C
152 11-08-2019 12:35:00 22.2 C 55 % 12.73 C
153 11-08-2019 12:40:00 22.1 C 56 % 12.92 C
154 11-08-2019 12:45:00 22.2 C 54 % 12.45 C
155 11-08-2019 12:50:00 22.3 C 55 % 12.83 C
156 11-08-2019 12:55:00 22.5 C 53 % 12.45 C
157 11-08-2019 13:00:00 22.6 C 50 % 11.66 C
158 11-08-2019 13:05:00 22.6 C 51 % 11.96 C
159 11-08-2019 13:10:00 22.7 C 52 % 12.34 C
160 11-08-2019 13:15:00 22.7 C 51 % 12.05 C
161 11-08-2019 13:20:00 22.7 C 51 % 12.05 C
162 11-08-2019 13:25:00 22.7 C 52 % 12.34 C
163 11-08-2019 13:30:00 22.8 C 51 % 12.14 C
164 11-08-2019 13:35:00 22.7 C 50 % 11.75 C
165 11-08-2019 13:40:00 22.8 C 53 % 12.73 C
166 11-08-2019 13:45:00 22.9 C 51 % 12.23 C
167 11-08-2019 13:50:00 23 C 50 % 12.02 C
168 11-08-2019 13:55:00 23.1 C 51 % 12.42 C
169 11-08-2019 14:00:00 23.1 C 51 % 12.42 C
170 11-08-2019 14:05:00 23.1 C 50 % 12.11 C
171 11-08-2019 14:10:00 23.1 C 52 % 12.71 C
172 11-08-2019 14:15:00 23.2 C 52 % 12.8 C
173 11-08-2019 14:20:00 23.3 C 53 % 13.19 C
174 11-08-2019 14:25:00 23.2 C 51 % 12.51 C
175 11-08-2019 14:30:00 22.9 C 51 % 12.23 C
Sensor: Nr:Datum:Temp:Feuchte:Taupunkt:
Aussen-T/F 176 11-08-2019 14:35:00 22.7 C 51 % 12.05 C
177 11-08-2019 14:40:00 22.6 C 51 % 11.96 C
178 11-08-2019 14:45:00 22.6 C 52 % 12.25 C
179 11-08-2019 14:50:00 22.5 C 58 % 13.83 C
180 11-08-2019 14:55:00 22.4 C 59 % 14 C
181 11-08-2019 15:00:00 22.2 C 56 % 13.01 C
182 11-08-2019 15:05:00 22 C 57 % 13.09 C
183 11-08-2019 15:10:00 21.8 C 55 % 12.36 C
184 11-08-2019 15:15:00 21.7 C 59 % 13.34 C
185 11-08-2019 15:20:00 21.6 C 56 % 12.45 C
186 11-08-2019 15:25:00 21.6 C 62 % 14.01 C
187 11-08-2019 15:30:00 21.4 C 64 % 14.31 C
188 11-08-2019 15:35:00 21.4 C 66 % 14.79 C
189 11-08-2019 15:40:00 21.3 C 63 % 13.97 C
190 11-08-2019 15:45:00 21.2 C 67 % 14.83 C
191 11-08-2019 15:50:00 21 C 65 % 14.17 C
192 11-08-2019 15:55:00 20.9 C 66 % 14.31 C
193 11-08-2019 16:00:00 20.8 C 60 % 12.76 C
194 11-08-2019 16:05:00 20.8 C 66 % 14.22 C
195 11-08-2019 16:10:00 20.7 C 63 % 13.41 C
196 11-08-2019 16:15:00 20.6 C 65 % 13.79 C
197 11-08-2019 16:20:00 20.5 C 65 % 13.7 C
198 11-08-2019 16:25:00 20.4 C 68 % 14.3 C
199 11-08-2019 16:30:00 20.3 C 66 % 13.74 C
200 11-08-2019 16:35:00 20.2 C 73 % 15.21 C
Sensor: Nr:Datum:Temp:Feuchte:Taupunkt:
Aussen-T/F 201 11-08-2019 16:40:00 19.8 C 75 % 15.24 C
202 11-08-2019 16:45:00 19.3 C 78 % 15.37 C
203 11-08-2019 16:50:00 18.8 C 80 % 15.28 C
204 11-08-2019 16:55:00 18.4 C 81 % 15.08 C
205 11-08-2019 17:00:00 18.2 C 83 % 15.27 C
206 11-08-2019 17:05:00 17.8 C 84 % 15.06 C
207 11-08-2019 17:10:00 17.6 C 85 % 15.05 C
208 11-08-2019 17:15:00 17.4 C 86 % 15.03 C
209 11-08-2019 17:20:00 17.2 C 86 % 14.84 C
210 11-08-2019 17:25:00 17.1 C 87 % 14.92 C
211 11-08-2019 17:30:00 17 C 87 % 14.82 C
212 11-08-2019 17:35:00 16.8 C 87 % 14.62 C
213 11-08-2019 17:40:00 16.8 C 89 % 14.98 C
214 11-08-2019 17:45:00 16.8 C 89 % 14.98 C
215 11-08-2019 17:50:00 16.8 C 89 % 14.98 C
216 11-08-2019 17:55:00 16.7 C 90 % 15.05 C
217 11-08-2019 18:00:00 16.7 C 90 % 15.05 C
218 11-08-2019 18:05:00 16.6 C 90 % 14.95 C
219 11-08-2019 18:10:00 16.5 C 90 % 14.85 C
220 11-08-2019 18:15:00 16.5 C 91 % 15.03 C
221 11-08-2019 18:20:00 16.6 C 91 % 15.13 C
222 11-08-2019 18:25:00 16.6 C 91 % 15.13 C
223 11-08-2019 18:30:00 16.6 C 91 % 15.13 C
224 11-08-2019 18:35:00 16.5 C 91 % 15.03 C
225 11-08-2019 18:40:00 16.4 C 91 % 14.93 C
Sensor: Nr:Datum:Temp:Feuchte:Taupunkt:
Aussen-T/F 226 11-08-2019 18:45:00 16.3 C 90 % 14.66 C
227 11-08-2019 18:50:00 16.2 C 90 % 14.56 C
228 11-08-2019 18:55:00 16.2 C 89 % 14.39 C
229 11-08-2019 19:00:00 16.1 C 89 % 14.29 C
230 11-08-2019 19:05:00 16.1 C 89 % 14.29 C
231 11-08-2019 19:10:00 16 C 89 % 14.19 C
232 11-08-2019 19:15:00 15.9 C 88 % 13.92 C
233 11-08-2019 19:20:00 15.9 C 89 % 14.09 C
234 11-08-2019 19:25:00 16 C 89 % 14.19 C
235 11-08-2019 19:30:00 16.1 C 90 % 14.46 C
236 11-08-2019 19:35:00 16.2 C 90 % 14.56 C
237 11-08-2019 19:40:00 16.2 C 91 % 14.73 C
238 11-08-2019 19:45:00 16.2 C 91 % 14.73 C
239 11-08-2019 19:50:00 16.1 C 90 % 14.46 C
240 11-08-2019 19:55:00 16.1 C 91 % 14.63 C
241 11-08-2019 20:00:00 16.1 C 91 % 14.63 C
242 11-08-2019 20:05:00 16 C 91 % 14.53 C
243 11-08-2019 20:10:00 15.9 C 91 % 14.43 C
244 11-08-2019 20:15:00 15.9 C 91 % 14.43 C
245 11-08-2019 20:20:00 15.8 C 91 % 14.33 C
246 11-08-2019 20:25:00 15.8 C 91 % 14.33 C
247 11-08-2019 20:30:00 15.7 C 91 % 14.24 C
248 11-08-2019 20:35:00 15.7 C 91 % 14.24 C
249 11-08-2019 20:40:00 15.6 C 91 % 14.14 C
250 11-08-2019 20:45:00 15.6 C 91 % 14.14 C
Sensor: Nr:Datum:Temp:Feuchte:Taupunkt:
Aussen-T/F 251 11-08-2019 20:50:00 15.6 C 91 % 14.14 C
252 11-08-2019 20:55:00 15.6 C 91 % 14.14 C
253 11-08-2019 21:00:00 15.5 C 91 % 14.04 C
254 11-08-2019 21:05:00 15.4 C 92 % 14.11 C
255 11-08-2019 21:10:00 15.4 C 92 % 14.11 C
256 11-08-2019 21:15:00 15.4 C 92 % 14.11 C
257 11-08-2019 21:20:00 15.3 C 92 % 14.01 C
258 11-08-2019 21:25:00 15.3 C 92 % 14.01 C
259 11-08-2019 21:30:00 15.3 C 92 % 14.01 C
260 11-08-2019 21:35:00 15.2 C 92 % 13.91 C
261 11-08-2019 21:40:00 15.2 C 92 % 13.91 C
262 11-08-2019 21:45:00 15.1 C 92 % 13.81 C
263 11-08-2019 21:50:00 14.9 C 91 % 13.44 C
264 11-08-2019 21:55:00 14.8 C 91 % 13.35 C
265 11-08-2019 22:00:00 14.7 C 91 % 13.25 C
266 11-08-2019 22:05:00 14.6 C 91 % 13.15 C
267 11-08-2019 22:10:00 14.5 C 91 % 13.05 C
268 11-08-2019 22:15:00 14.4 C 91 % 12.95 C
269 11-08-2019 22:20:00 14.3 C 92 % 13.02 C
270 11-08-2019 22:25:00 14.3 C 92 % 13.02 C
271 11-08-2019 22:30:00 14.2 C 92 % 12.92 C
272 11-08-2019 22:35:00 14.2 C 92 % 12.92 C
273 11-08-2019 22:40:00 14.1 C 92 % 12.82 C
274 11-08-2019 22:45:00 14.1 C 92 % 12.82 C
275 11-08-2019 22:50:00 14.1 C 93 % 12.99 C
Sensor: Nr:Datum:Temp:Feuchte:Taupunkt:
Aussen-T/F 276 11-08-2019 22:55:00 14.1 C 93 % 12.99 C
277 11-08-2019 23:00:00 14.1 C 93 % 12.99 C
278 11-08-2019 23:05:00 14.1 C 93 % 12.99 C
279 11-08-2019 23:10:00 14.2 C 93 % 13.08 C
280 11-08-2019 23:15:00 14.2 C 93 % 13.08 C
281 11-08-2019 23:20:00 14.2 C 93 % 13.08 C
282 11-08-2019 23:25:00 14.2 C 93 % 13.08 C
283 11-08-2019 23:30:00 14.2 C 93 % 13.08 C
284 11-08-2019 23:35:00 14.2 C 93 % 13.08 C
285 11-08-2019 23:40:00 14.2 C 94 % 13.25 C
286 11-08-2019 23:45:00 14.3 C 94 % 13.35 C
287 11-08-2019 23:50:00 14.4 C 94 % 13.45 C
288 11-08-2019 23:55:00 14.6 C 94 % 13.65 C

Legende:
   Min
   Max


Maximal/Minimal-Werte vom 11.08.2019 - 11.08.2019

Sensor Min Max Avg
Temp
(Aussen-T/F)
13.1 °C
11-08-2019  06:10:00
23.3 °C
11-08-2019  14:20:00
16.99 °C
Feuchte
(Aussen-T/F)
50 %
11-08-2019  13:00:00
94 %
11-08-2019  06:30:00
80.9 %
Taupunkt
(Aussen-T/F)
11.66 C
11-08-2019  13:00:00
15.37 C
11-08-2019  16:45:00
13.33 C

Die Daten stammen von einer Davis Vantage Pro 2 Wetter-Station und werden unter Linux mit der Software wview2wettercgi und aufbereitet. Alle Angaben erfolgen ohne Gewähr für ihre Vollständigkeit oder Richtigkeit.
Kontakt: Rainer Krienke krienke@uni-koblenz.de . Meine Webseiten an der Uni Koblenz oder privat.
Version: $Revision: 0.78 $